STARLINK-11265 [DTC] (60909 NORAD) Tracking and Keplerian Element Data

This shows tracking and keplerian element data for the satellite.

Feedback or suggestion? Click here.




ElementValue
Catalog60909
NameSTARLINK-11265 [DTC]
Epoch Orbit795
Epoch Day286.81857617
Epoch Year2024
RAAN140.1544
Inclination53.1586
Eccentricity0.0001793
Argument of Perigee40.5151
Mean Anonmoly319.6003
Mean Motion15.76798117
Decay Rate0.00046829
L11 60909U 24154G 24286.81857617 .00046829 00000+0 28765-3 0 9994
L22 60909 53.1586 140.1544 0001793 40.5151 319.6003 15.76798117 7954



Live tracking and technical data element details for STARLINK-11265 [DTC] (NORAD 60909). STARLINK-11265 [DTC] can be tracked NOW for your location showing map with azimuth and elevation plus other details from your city location.







IsCatalogInMostPopularTable: catalog: 60909, numindb: 8
Update: records affected: 1



GetName: 60909 STARLINK-11265 [DTC]

Hit Count: updated at: Tue, 03 Dec 2024 01:33:08 GMT